Weather History for Algona, IA

Change the Weather History Date:

Monday, February 6, 2012

  Actual Average Record
Temperature  
Mean Temperature 34 °F -  
Max Temperature 44 °F 27 °F 44 °F (2012)
Min Temperature 23 °F 11 °F -11 °F (2014)
Degree Days  
Heating Degree Days 32    
Moisture  
Dew Point 29 °F    
Average Humidity 92    
Maximum Humidity 100    
Minimum Humidity 66    
Precipitation  
Precipitation 0.00 in - - ()
Sea Level Pressure  
Sea Level Pressure 30.14 in    
Wind  
Wind Speed 8 mph (SW)    
Max Wind Speed 13 mph    
Max Gust Speed -    
Visibility 4 miles    
Events Fog , Snow    
Averages and records for this station are not official NWS values.
T = Trace of Precipitation, MM = Missing Value Source: NWS Daily Summary

Daily Weather History Graph

Daily Weather History Graph

Search for Another Location

Airport:

Trip Planner

Search our weather history database for the weather conditions in past years. The results will help you decide how hot, cold, wet, or windy it might be!

Date:

Astronomy

Feb. 06, 2012 Rise Set
Actual Time 7:27 AM CST 5:35 PM CST
Civil Twilight 6:57 AM CST 6:05 PM CST
Nautical Twilight 6:23 AM CST 6:39 PM CST
Astronomical Twilight 5:50 AM CST 7:12 PM CST
Moon 4:40 PM CST (2/6) 6:20 AM CST (2/6)
Length of Visible Light 11h 08m
Length of Day
10h 08m
Waxing Gibbous, 98% of the Moon is Illuminated
Feb 6
Waxing Gibbous
Feb 7
Full
Feb 14
Last Quarter
Feb 21
New
Feb 29
First Quarter

Hourly Weather History & Observations

Time (CST) Temp. Windchill Dew Point Humidity Pressure Visibility Wind Dir Wind Speed Gust Speed Precip Events Conditions
12:15 AM 28.4 °F 20.4 °F 28.4 °F 100% 30.24 in 4.0 mi West 8.1 mph - N/A   Overcast
12:35 AM 28.4 °F 19.7 °F 28.4 °F 100% 30.24 in 4.0 mi WSW 9.2 mph - N/A   Overcast
12:55 AM 28.4 °F 20.4 °F 28.4 °F 100% 30.23 in 3.0 mi WSW 8.1 mph - N/A   Overcast
1:15 AM 28.4 °F 19.7 °F 28.4 °F 100% 30.23 in 1.5 mi WSW 9.2 mph - N/A   Overcast
1:35 AM 26.6 °F 18.2 °F 26.6 °F 100% 30.23 in 0.5 mi WSW 8.1 mph - N/A Fog Light Freezing Fog
1:55 AM 26.6 °F 17.5 °F 26.6 °F 100% 30.22 in 0.5 mi WSW 9.2 mph - N/A Fog Light Freezing Fog
2:15 AM 26.6 °F 17.5 °F 26.6 °F 100% 30.22 in 0.5 mi WSW 9.2 mph - N/A Fog Light Freezing Fog
2:35 AM 26.6 °F 16.8 °F 26.6 °F 100% 30.21 in 0.5 mi WSW 10.4 mph - N/A Fog Light Freezing Fog
2:55 AM 26.6 °F 16.2 °F 26.6 °F 100% 30.20 in 0.2 mi WSW 11.5 mph - N/A Fog Light Freezing Fog
3:15 AM 26.6 °F 16.8 °F 26.6 °F 100% 30.20 in 0.5 mi SW 10.4 mph - N/A Snow Light Snow
3:35 AM 26.6 °F 15.7 °F 26.6 °F 100% 30.19 in 0.5 mi SW 12.7 mph - N/A   Overcast
3:55 AM 26.6 °F 17.5 °F 26.6 °F 100% 30.18 in 0.5 mi WSW 9.2 mph - N/A   Overcast
4:15 AM 26.6 °F 16.8 °F 24.8 °F 93% 30.19 in 0.5 mi SW 10.4 mph - N/A   Overcast
4:35 AM 26.6 °F 17.5 °F 26.6 °F 100% 30.18 in 0.5 mi WSW 9.2 mph - N/A   Overcast
4:55 AM 24.8 °F 14.6 °F 24.8 °F 100% 30.18 in 0.5 mi SW 10.4 mph - N/A   Overcast
5:15 AM 24.8 °F 14.6 °F 24.8 °F 100% 30.18 in 0.5 mi SW 10.4 mph - N/A Snow Light Snow
5:35 AM 24.8 °F 15.3 °F 24.8 °F 100% 30.18 in 0.5 mi SW 9.2 mph - N/A   Overcast
5:55 AM 24.8 °F 15.3 °F 24.8 °F 100% 30.17 in 0.5 mi SW 9.2 mph - N/A Snow Light Snow
6:15 AM 24.8 °F 15.3 °F 24.8 °F 100% 30.17 in 0.5 mi WSW 9.2 mph - N/A   Overcast
6:35 AM 24.8 °F 15.3 °F 24.8 °F 100% 30.16 in 0.5 mi SW 9.2 mph - N/A   Overcast
6:55 AM 24.8 °F 17.9 °F 24.8 °F 100% 30.16 in 0.5 mi SW 5.8 mph - N/A   Overcast
7:15 AM 24.8 °F 17.9 °F 23.0 °F 93% 30.16 in 0.2 mi SW 5.8 mph - N/A Snow Light Snow
7:35 AM 24.8 °F 16.9 °F 23.0 °F 93% 30.16 in 0.2 mi SW 6.9 mph - N/A Snow Light Snow
7:55 AM 23.0 °F 14.7 °F 23.0 °F 100% 30.16 in 0.2 mi SW 6.9 mph - N/A Snow Light Snow
8:15 AM 24.8 °F 16.9 °F 23.0 °F 93% 30.16 in 0.2 mi SW 6.9 mph - N/A Snow Light Snow
8:35 AM 24.8 °F 17.9 °F 23.0 °F 93% 30.16 in 0.2 mi SSW 5.8 mph - N/A Snow Light Snow
8:55 AM 24.8 °F 16.1 °F 24.8 °F 100% 30.16 in 0.2 mi SSW 8.1 mph - N/A Fog Light Freezing Fog
9:15 AM 24.8 °F 16.9 °F 24.8 °F 100% 30.16 in 0.2 mi SW 6.9 mph - N/A Snow Light Snow
9:35 AM 24.8 °F 16.9 °F 24.8 °F 100% 30.16 in 0.2 mi SSW 6.9 mph - N/A   Overcast
9:55 AM 24.8 °F 16.9 °F 24.8 °F 100% 30.16 in 0.2 mi SSW 6.9 mph - N/A Fog Light Freezing Fog
10:15 AM 24.8 °F 16.1 °F 24.8 °F 100% 30.16 in 0.2 mi SW 8.1 mph - N/A   Overcast
10:35 AM 24.8 °F 16.1 °F 24.8 °F 100% 30.16 in 0.5 mi SSW 8.1 mph - N/A Fog Light Freezing Fog
10:55 AM 26.6 °F 18.2 °F 26.6 °F 100% 30.15 in 1.0 mi SSW 8.1 mph - N/A   Overcast
11:15 AM 26.6 °F 19.1 °F 26.6 °F 100% 30.15 in 2.5 mi SW 6.9 mph - N/A   Overcast
11:35 AM 28.4 °F 22.2 °F 28.4 °F 100% 30.14 in 3.0 mi SW 5.8 mph - N/A   Overcast
11:55 AM 28.4 °F 21.2 °F 28.4 °F 100% 30.14 in 4.0 mi SW 6.9 mph - N/A   Overcast
12:15 PM 30.2 °F 23.4 °F 28.4 °F 93% 30.13 in 4.0 mi SW 6.9 mph - N/A   Mostly Cloudy
12:35 PM 32.0 °F 26.4 °F 32.0 °F 100% 30.12 in 5.0 mi SW 5.8 mph - N/A   Scattered Clouds
12:55 PM 33.8 °F 27.7 °F 33.8 °F 100% 30.11 in 5.0 mi WSW 6.9 mph - N/A   Clear
1:15 PM 33.8 °F 27.0 °F 33.8 °F 100% 30.10 in 5.0 mi SW 8.1 mph - N/A   Clear
1:35 PM 37.4 °F 32.8 °F 35.6 °F 93% 30.09 in 5.0 mi SW 5.8 mph - N/A   Clear
1:55 PM 39.2 °F 35.0 °F 33.8 °F 81% 30.09 in 5.0 mi SW 5.8 mph - N/A   Haze
2:15 PM 41.0 °F 37.1 °F 32.0 °F 70% 30.08 in 7.0 mi WSW 5.8 mph - N/A   Clear
2:35 PM 42.8 °F 38.6 °F 32.0 °F 66% 30.08 in 7.0 mi WSW 6.9 mph - N/A   Clear
2:55 PM 42.8 °F 38.6 °F 33.8 °F 70% 30.08 in 10.0 mi SW 6.9 mph - N/A   Clear
3:15 PM 42.8 °F 38.0 °F 33.8 °F 70% 30.07 in 10.0 mi SW 8.1 mph - N/A   Clear
3:35 PM 44.6 °F 40.7 °F 33.8 °F 66% 30.07 in 7.0 mi WSW 6.9 mph - N/A   Clear
3:55 PM 44.6 °F 40.7 °F 33.8 °F 66% 30.07 in 10.0 mi WSW 6.9 mph - N/A   Clear
4:15 PM 44.6 °F 41.4 °F 33.8 °F 66% 30.08 in 10.0 mi SW 5.8 mph - N/A   Clear
4:35 PM 44.6 °F 43.1 °F 33.8 °F 66% 30.08 in 10.0 mi WSW 3.5 mph - N/A   Clear
4:55 PM 42.8 °F - 35.6 °F 76% 30.08 in 10.0 mi Calm Calm - N/A   Clear
5:15 PM 42.8 °F - 35.6 °F 76% 30.08 in 10.0 mi Calm Calm - N/A   Clear
5:35 PM 39.2 °F - 33.8 °F 81% 30.08 in 10.0 mi Calm Calm - N/A   Clear
5:55 PM 35.6 °F 32.8 °F 33.8 °F 93% 30.08 in 10.0 mi SSW 3.5 mph - N/A   Clear
6:15 PM 37.4 °F 34.9 °F 33.8 °F 87% 30.09 in 10.0 mi SW 3.5 mph - N/A   Clear
6:35 PM 37.4 °F - 33.8 °F 87% 30.09 in 10.0 mi Calm Calm - N/A   Clear
6:55 PM 33.8 °F 30.8 °F 32.0 °F 93% 30.10 in 10.0 mi West 3.5 mph - N/A   Clear
7:15 PM 33.8 °F 27.7 °F 32.0 °F 93% 30.10 in 10.0 mi West 6.9 mph - N/A   Clear
7:35 PM 33.8 °F 26.4 °F 30.2 °F 87% 30.11 in 10.0 mi West 9.2 mph - N/A   Clear
7:55 PM 33.8 °F 27.0 °F 32.0 °F 93% 30.11 in 10.0 mi WNW 8.1 mph - N/A   Clear
8:15 PM 35.6 °F 29.2 °F 32.0 °F 87% 30.12 in 10.0 mi NW 8.1 mph - N/A   Clear
8:35 PM 35.6 °F 29.2 °F 30.2 °F 81% 30.12 in 10.0 mi NNW 8.1 mph - N/A   Clear
8:55 PM 35.6 °F 29.2 °F 30.2 °F 81% 30.13 in 10.0 mi NNW 8.1 mph - N/A   Clear
9:15 PM 33.8 °F 27.0 °F 30.2 °F 87% 30.14 in 10.0 mi NW 8.1 mph - N/A   Clear
9:35 PM 33.8 °F 25.8 °F 30.2 °F 87% 30.15 in 10.0 mi NNW 10.4 mph - N/A   Clear
9:55 PM 33.8 °F 25.3 °F 30.2 °F 87% 30.16 in 10.0 mi NNW 11.5 mph - N/A   Clear
10:15 PM 33.8 °F 24.8 °F 30.2 °F 87% 30.16 in 10.0 mi NNW 12.7 mph - N/A   Clear
10:35 PM 32.0 °F 23.0 °F 30.2 °F 93% 30.17 in 10.0 mi NNW 11.5 mph - N/A   Clear
10:55 PM 32.0 °F 23.0 °F 30.2 °F 93% 30.18 in 10.0 mi NNW 11.5 mph - N/A   Clear
11:15 PM 32.0 °F 23.0 °F 30.2 °F 93% 30.18 in 10.0 mi NNW 11.5 mph - N/A   Clear
11:35 PM 32.0 °F 23.0 °F 28.4 °F 87% 30.19 in 10.0 mi NNW 11.5 mph - N/A   Clear